[[{"header":{"parameterUnit":"m.s-1","parameterCategory":2,"la1":30.2991,"la2":30.254,"lo1":-89.0895,"lo2":-89.0444,"dy":0.0017,"dx":0.0017,"nx":28,"ny":28,"refTime":"2024-10-05T21:00:00:Z","depth":"0","parameterNumber":2,"parameterNumberName":"U-component_of_CURRENTS"},"data":[0,0,0,0,0,0,0,0,0,0,0,0,0,0,0,0,0,0,0,0,0,0,0,0,0,0,0,0,0,0,0,0,0,0,0,0,0,0,0,0,0,0,0,0,0,0,0,0,0,0,0,0,0,0,0,0,0,0,0.2849,0.285,0,0.2883,0.2883,0.2883,0.2905,0.2905,0.2905,0.2906,0.2873,0.2872,0.2871,0,0,0,0,0,0,0,0,0,0,0,0,0,0.2787,0.2788,0.2849,0.285,0.2851,0.2883,0.2883,0.2883,0.2905,0.2905,0.2906,0.2906,0.2873,0.2872,0.287,0,0,0,0,0,0,0,0,0,0,0,0,0,0.2814,0.2788,0.2849,0.2867,0.2869,0.2883,0.2883,0.2883,0.2905,0.2905,0.2906,0.2906,0.2874,0.2872,0.287,0.2849,0,0,0.2865,0.2864,0,0,0,0,0,0,0,0,0.2813,0.2816,0.2864,0.2866,0.2868,0.2892,0.2849,0.2869,0.2904,0.2889,0.2906,0.2906,0.2874,0.2872,0.2875,0.2847,0.2846,0.2865,0.2863,0.2863,0.2862,0,0,0,0,0,0,0,0.2811,0.2815,0.286,0.2864,0.2867,0.2867,0.2872,0.2853,0.2875,0.289,0.2892,0.2899,0.2875,0.2877,0.2874,0.2845,0.2865,0.2863,0.2862,0.2861,0.284,0.284,0,0,0,0,0,0,0.2812,0.2813,0.2859,0.2862,0.2844,0.2868,0.2873,0.2882,0.2877,0.2878,0.2899,0.29,0.288,0.2877,0.2873,0.2889,0.2863,0.2861,0.286,0.2839,0.284,0.284,0,0,0,0,0,0,0.281,0.2816,0.2858,0.284,0.2846,0.2869,0.2879,0.2882,0.2886,0.2885,0.2884,0.2899,0.288,0.2876,0.2864,0.2886,0.286,0.2859,0.2838,0.2839,0.284,0.2893,0,0,0,0,0,0,0.2809,0.2815,0.2816,0.284,0.2847,0.2863,0.2879,0.2883,0.289,0.2892,0.2884,0.2882,0.288,0.2867,0.2862,0.2883,0.2857,0.2838,0.2839,0.284,0.2891,0.2896,0.29,0,0,0,0,0,0.2806,0.2799,0.2816,0.2821,0.285,0.2863,0.2866,0.2883,0.289,0.2888,0.289,0.2882,0.287,0.2865,0.286,0.2881,0.2837,0.2839,0.284,0.2889,0.2895,0.29,0,0,0,0,0,0,0.2758,0.2802,0.2821,0.2824,0.2845,0.2868,0.2865,0.2879,0.288,0.2881,0.2879,0.2876,0.288,0.2864,0.2859,0.2878,0.2856,0.2856,0.2895,0.29,0.2905,0.2947,0.2856,0,0,0,0,0,0.2753,0.2766,0.2804,0.2804,0.2817,0.2841,0.2847,0.2864,0.2872,0.2874,0.287,0.287,0.2879,0.2876,0.2873,0.2869,0.2903,0.2882,0.2886,0.289,0.2921,0.2987,0.3001,0.2844,0.2844,0.2844,0,0,0.2729,0.2758,0.2762,0.2796,0.2812,0.2838,0.2845,0.2856,0.2882,0.2867,0.2881,0.2879,0.2881,0.2893,0.2893,0.2883,0.2951,0.2892,0.2895,0.2925,0.299,0.3005,0.3019,0.2845,0.2845,0.2844,0,0,0.27,0.272,0.2731,0.2757,0.2793,0.2819,0.2823,0.2851,0.2868,0.2876,0.289,0.2908,0.2888,0.2923,0.2933,0.2955,0.2972,0.294,0.2999,0.3061,0.3076,0.3089,0.315,0.3169,0.2943,0.2943,0.2943,0,0.2672,0.2704,0.273,0.2756,0.2786,0.2814,0.2842,0.2861,0.2881,0.2913,0.2882,0.2928,0.2917,0.2985,0.2997,0.2971,0.3006,0.2978,0.3071,0.3084,0.3097,0.3157,0.3177,0.2946,0.2946,0.2945,0.2945,0,0.2669,0.2697,0.2701,0.2761,0.2787,0.281,0.286,0.2886,0.2904,0.2938,0.299,0.2987,0.3028,0.302,0.3013,0.3104,0.31,0.307,0.3064,0.3117,0.3176,0.3195,0.295,0.2949,0.2948,0.2947,0,0,0.2606,0.2689,0.2691,0.2737,0.2802,0.2828,0.2881,0.2956,0.3012,0.3024,0.3101,0.3119,0.3136,0.3151,0.3151,0.32,0.3306,0.3176,0.3178,0.3251,0.3456,0.3427,0.3445,0.3293,0.3296,0.3299,0.3461,0,0.2603,0.2664,0.2706,0.2767,0.2813,0.2874,0.2927,0.2997,0.3045,0.3117,0.3161,0.3211,0.3181,0.3203,0.3256,0.3295,0.336,0.3266,0.3382,0.3387,0.3366,0.3468,0.3324,0.3454,0.348,0.3483,0.3486,0,0.2597,0.265,0.271,0.2818,0.2842,0.2878,0.2999,0.3048,0.3164,0.3204,0.3284,0.3313,0.3413,0.3353,0.349,0.3431,0.3462,0.3482,0.3488,0.3464,0.3395,0.3404,0.3488,0.3417,0.3516,0.3513,0.3511,0,0.2569,0.2657,0.2714,0.2745,0.2857,0.2902,0.2963,0.3075,0.3154,0.3267,0.334,0.3438,0.3503,0.3563,0.3616,0.3561,0.3759,0.3681,0.3695,0.3693,0.3598,0.3581,0.3641,0.3795,0.3795,0.3794,0.3794,0,0.2565,0.2609,0.2704,0.2735,0.2815,0.2892,0.299,0.3063,0.3201,0.3288,0.3383,0.3473,0.3559,0.3672,0.3688,0.3779,0.3827,0.3753,0.3751,0.3609,0.3592,0.3545,0.3499,0.38,0.3799,0.3798,0.3797,0,0.2521,0.2582,0.2651,0.2763,0.2801,0.2851,0.3005,0.3071,0.321,0.3331,0.3377,0.3553,0.3681,0.3782,0.3893,0.3881,0.3852,0.3964,0.3798,0.3773,0.3668,0.3629,0.359,0.3471,0.3999,0.4,0.4,0,0.2505,0.2537,0.2648,0.2684,0.2729,0.2827,0.2885,0.3044,0.3116,0.3354,0.3397,0.3604,0.3717,0.3928,0.3943,0.4027,0.3893,0.3922,0.3784,0.3693,0.3649,0.3497,0.3387,0.3679,0.3677,0.3675,0.3674,0,0.2476,0.2507,0.2564,0.2632,0.2688,0.2771,0.2866,0.2945,0.3106,0.3238,0.34,0.3535,0.3754,0.3793,0.3931,0.3937,0.3732,0.3885,0.3835,0.3464,0.3261,0.3133,0.3547,0.3658,0.3659,0.366,0.3661,0.3662,0.244,0.2458,0.2517,0.2578,0.2634,0.268,0.2711,0.282,0.2943,0.3075,0.3265,0.3394,0.3575,0.3756,0.3761,0.3696,0.3646,0.3567,0.3551,0.3424,0.3234,0.3625,0.3696,0.3698,0.3699,0.37,0.3702,0,0.2387,0.2413,0.2461,0.251,0.2517,0.2583,0.2661,0.2661,0.2724,0.2882,0.3009,0.3196,0.3303,0.3435,0.3503,0.3389,0.32,0.3292,0.304,0.2962,0.3367,0.3275,0.3203,0.3203,0.3203,0.3203,0.3204,0.3204,0.2357,0.2365,0.2386,0.2375,0.2399,0.2359,0.2372,0.239,0.2471,0.2567,0.2665,0.2804,0.3147,0.3335,0.3293,0.3194,0.293,0.2804,0.2791,0.3087,0.3109,0.3131,0.3036,0.2915,0.2914,0.2236,0.2231,0.2227]},{"header":{"parameterUnit":"m.s-1","parameterCategory":2,"la1":30.2991,"la2":30.254,"lo1":-89.0895,"lo2":-89.0444,"dy":0.0017,"dx":0.0017,"nx":28,"ny":28,"refTime":"2024-10-05T21:00:00:Z","depth":"0","parameterNumber":3,"parameterNumberName":"V-component_of_CURRENTS"},"data":[0,0,0,0,0,0,0,0,0,0,0,0,0,0,0,0,0,0,0,0,0,0,0,0,0,0,0,0,0,0,0,0,0,0,0,0,0,0,0,0,0,0,0,0,0,0,0,0,0,0,0,0,0,0,0,0,0,0,-0.0302,-0.0303,0,-0.0372,-0.0373,-0.0374,-0.0446,-0.0446,-0.0447,-0.0448,-0.053,-0.0532,-0.0533,0,0,0,0,0,0,0,0,0,0,0,0,0,-0.0252,-0.0253,-0.0302,-0.0303,-0.0303,-0.0372,-0.0373,-0.0374,-0.0445,-0.0446,-0.0447,-0.0448,-0.053,-0.0532,-0.0533,0,0,0,0,0,0,0,0,0,0,0,0,0,-0.0295,-0.0253,-0.0302,-0.0345,-0.035,-0.0371,-0.0373,-0.0374,-0.0445,-0.0446,-0.0448,-0.0449,-0.0529,-0.0531,-0.0534,-0.0525,0,0,-0.054,-0.0541,0,0,0,0,0,0,0,0,-0.0293,-0.0297,-0.0338,-0.0342,-0.0347,-0.0399,-0.0386,-0.0424,-0.0445,-0.0412,-0.0448,-0.0449,-0.0485,-0.0491,-0.0505,-0.0528,-0.0532,-0.0541,-0.0542,-0.0543,-0.0544,0,0,0,0,0,0,0,-0.029,-0.0295,-0.0332,-0.0339,-0.0344,-0.0369,-0.0376,-0.0393,-0.0443,-0.0415,-0.0419,-0.0423,-0.0488,-0.0503,-0.0507,-0.0533,-0.0541,-0.0543,-0.0544,-0.0545,-0.0565,-0.0564,0,0,0,0,0,0,-0.0274,-0.0292,-0.033,-0.0334,-0.032,-0.0368,-0.0377,-0.0383,-0.0443,-0.0452,-0.0422,-0.0426,-0.0498,-0.0505,-0.0511,-0.0515,-0.0543,-0.0545,-0.0546,-0.0566,-0.0565,-0.0564,0,0,0,0,0,0,-0.0273,-0.0277,-0.0327,-0.0312,-0.032,-0.0368,-0.0374,-0.0384,-0.0396,-0.0448,-0.0458,-0.0424,-0.0499,-0.0507,-0.0522,-0.0518,-0.0546,-0.0548,-0.0567,-0.0566,-0.0565,-0.0515,0,0,0,0,0,0,-0.0271,-0.0276,-0.0272,-0.0311,-0.032,-0.0327,-0.0373,-0.0384,-0.0396,-0.0402,-0.0453,-0.0462,-0.0501,-0.0518,-0.0524,-0.0522,-0.055,-0.0568,-0.0566,-0.0565,-0.0518,-0.0513,-0.0508,0,0,0,0,0,-0.0269,-0.025,-0.0272,-0.0276,-0.0315,-0.0325,-0.0332,-0.0372,-0.0394,-0.0389,-0.0428,-0.046,-0.0513,-0.0519,-0.0526,-0.0524,-0.0569,-0.0567,-0.0565,-0.052,-0.0514,-0.0508,0,0,0,0,0,0,-0.0215,-0.0256,-0.0281,-0.0274,-0.0295,-0.0337,-0.0332,-0.036,-0.0387,-0.0392,-0.0448,-0.0459,-0.0473,-0.0496,-0.0501,-0.0524,-0.0546,-0.0546,-0.051,-0.0504,-0.0499,-0.0494,-0.0552,0,0,0,0,0,-0.0203,-0.0207,-0.0246,-0.0237,-0.0246,-0.0288,-0.0296,-0.0321,-0.035,-0.0364,-0.04,-0.0437,-0.047,-0.0484,-0.0511,-0.0516,-0.0544,-0.052,-0.0515,-0.051,-0.051,-0.0557,-0.0556,-0.0558,-0.0558,-0.0558,0,0,-0.0179,-0.0201,-0.0203,-0.0227,-0.0249,-0.0251,-0.0296,-0.0298,-0.0306,-0.0366,-0.038,-0.0417,-0.0466,-0.0482,-0.049,-0.0502,-0.0518,-0.0508,-0.0504,-0.0506,-0.0555,-0.0555,-0.0555,-0.0557,-0.0557,-0.0557,0,0,-0.0129,-0.0152,-0.0143,-0.0158,-0.0182,-0.0209,-0.0204,-0.024,-0.0264,-0.0276,-0.033,-0.0362,-0.0397,-0.0443,-0.047,-0.0447,-0.049,-0.0451,-0.0425,-0.047,-0.0471,-0.0472,-0.0483,-0.0486,-0.045,-0.0449,-0.0449,0,-0.0099,-0.0099,-0.0136,-0.0131,-0.0139,-0.0186,-0.0174,-0.02,-0.0236,-0.0252,-0.0269,-0.0343,-0.0384,-0.0427,-0.0427,-0.0439,-0.0459,-0.0447,-0.0465,-0.0467,-0.0469,-0.0481,-0.0484,-0.0447,-0.0447,-0.0447,-0.0448,0,-0.0052,-0.0052,-0.004,-0.0062,-0.007,-0.0062,-0.0105,-0.0116,-0.0148,-0.0183,-0.0221,-0.0281,-0.0328,-0.0347,-0.0385,-0.0418,-0.0424,-0.0454,-0.0483,-0.0466,-0.0479,-0.0483,-0.0443,-0.0444,-0.0445,-0.0445,0,0,0.0008,-0.0007,-0.0005,-0.0004,-0.0035,-0.0033,-0.0046,-0.0074,-0.0078,-0.0129,-0.0145,-0.0221,-0.0259,-0.0291,-0.0344,-0.039,-0.0419,-0.0423,-0.0427,-0.0437,-0.0494,-0.0467,-0.047,-0.0456,-0.0457,-0.0458,-0.0488,0,0.0052,0.0077,0.0053,0.0078,0.0085,0.0039,0.0034,0.0003,-0.0031,-0.0053,-0.0138,-0.0166,-0.0237,-0.0252,-0.0314,-0.0391,-0.0432,-0.0406,-0.0506,-0.0508,-0.0491,-0.0475,-0.0444,-0.0466,-0.0493,-0.0494,-0.0494,0,0.01,0.0107,0.0137,0.0137,0.0137,0.0143,0.0126,0.0116,0.0062,0.0035,-0.0024,-0.0077,-0.0156,-0.021,-0.0347,-0.0326,-0.0404,-0.0467,-0.0471,-0.047,-0.0491,-0.0492,-0.0474,-0.0629,-0.0502,-0.0501,-0.0501,0,0.0154,0.0167,0.0193,0.0192,0.0184,0.0188,0.0179,0.0142,0.015,0.0093,0.0102,-0.0011,-0.0038,-0.0174,-0.0302,-0.0326,-0.0436,-0.0487,-0.0536,-0.0533,-0.0538,-0.0534,-0.0688,-0.0582,-0.0582,-0.0582,-0.0581,0,0.0204,0.0227,0.0223,0.0237,0.0279,0.0243,0.028,0.0252,0.0237,0.0265,0.0152,0.0168,-0.0031,-0.0113,-0.0264,-0.0396,-0.0409,-0.0524,-0.0544,-0.0515,-0.0509,-0.0671,-0.0777,-0.0583,-0.0582,-0.0582,-0.0582,0,0.0258,0.0254,0.029,0.0294,0.0307,0.0331,0.0364,0.0389,0.0357,0.0393,0.0387,0.0311,0.0215,0.0029,-0.016,-0.0311,-0.0547,-0.0505,-0.0436,-0.0448,-0.0649,-0.0751,-0.0937,-0.1004,-0.0572,-0.0572,-0.0571,0,0.0286,0.031,0.0345,0.0383,0.039,0.0428,0.0465,0.0451,0.0491,0.0497,0.0531,0.0466,0.046,0.0202,-0.0072,-0.0312,-0.05,-0.0463,-0.0519,-0.0649,-0.078,-0.0866,-0.0917,-0.0498,-0.0497,-0.0496,-0.0496,0,0.0344,0.0355,0.0388,0.0466,0.0516,0.0578,0.0629,0.069,0.0687,0.0745,0.0822,0.0828,0.0591,0.0389,0.0043,-0.0155,-0.0575,-0.0454,-0.0626,-0.0763,-0.0832,-0.0907,-0.0469,-0.0489,-0.049,-0.049,-0.049,-0.0491,0.0392,0.043,0.0483,0.0562,0.0628,0.0724,0.0801,0.0884,0.0999,0.11,0.1072,0.1123,0.0773,0.0331,0.004,-0.0476,-0.0515,-0.064,-0.0758,-0.0835,-0.09,-0.0422,-0.0444,-0.0445,-0.0445,-0.0445,-0.0446,0,0.0457,0.0504,0.058,0.0677,0.0769,0.0785,0.0915,0.1011,0.119,0.1292,0.1385,0.1266,0.0839,0.0348,-0.0334,-0.0707,-0.0879,-0.0931,-0.1072,-0.1112,-0.0713,-0.0709,-0.0742,-0.0742,-0.0742,-0.0742,-0.0742,-0.0742,0.0494,0.0581,0.0621,0.0787,0.0861,0.0997,0.1085,0.1245,0.136,0.1537,0.1592,0.1596,0.1245,0.0,-0.0845,-0.1058,-0.1343,-0.1404,-0.155,-0.1304,-0.1286,-0.127,-0.129,-0.1446,-0.1447,-0.1886,-0.189,-0.1894]}],[{"header":{"parameterUnit":"m.s-1","parameterCategory":2,"la1":30.2991,"la2":30.254,"lo1":-89.0895,"lo2":-89.0444,"dy":0.0017,"dx":0.0017,"nx":28,"ny":28,"refTime":"2024-10-05T21:00:00:Z","depth":"2","parameterNumber":2,"parameterNumberName":"U-component_of_CURRENTS"},"data":[0,0,0,0,0,0,0,0,0,0,0,0,0,0,0,0,0,0,0,0,0,0,0,0,0,0,0,0,0,0,0,0,0,0,0,0,0,0,0,0,0,0,0,0,0,0,0,0,0,0,0,0,0,0,0,0,0,0,0.252,0.252,0,0.2541,0.2542,0.2542,0.2571,0.2572,0.2572,0.2573,0.2593,0.2593,0.2593,0,0,0,0,0,0,0,0,0,0,0,0,0,0.2478,0.2479,0.252,0.252,0.2521,0.2541,0.2542,0.2542,0.2571,0.2572,0.2572,0.2573,0.2593,0.2593,0.2593,0,0,0,0,0,0,0,0,0,0,0,0,0,0.2497,0.2479,0.252,0.2538,0.2539,0.2541,0.2542,0.2542,0.2571,0.2572,0.2572,0.2573,0.2593,0.2593,0.2593,0.258,0,0,0.2594,0.2594,0,0,0,0,0,0,0,0,0.2496,0.2499,0.2535,0.2536,0.2538,0.2554,0.2534,0.2555,0.2571,0.2559,0.2573,0.2573,0.258,0.2581,0.2583,0.2581,0.2582,0.2594,0.2594,0.2594,0.2594,0,0,0,0,0,0,0,0.2495,0.2498,0.2529,0.2535,0.2537,0.2535,0.2539,0.2538,0.2565,0.256,0.2562,0.2564,0.2581,0.2583,0.2584,0.2582,0.2594,0.2594,0.2594,0.2594,0.2635,0.2636,0,0,0,0,0,0,0.2493,0.2497,0.2528,0.2529,0.2519,0.2535,0.254,0.2549,0.2565,0.2568,0.2564,0.2565,0.2583,0.2584,0.2585,0.2631,0.2594,0.2594,0.2594,0.2634,0.2635,0.2636,0,0,0,0,0,0,0.2492,0.2496,0.2527,0.2513,0.2517,0.2535,0.2545,0.2549,0.2568,0.2568,0.2571,0.2582,0.2583,0.2585,0.2605,0.263,0.2594,0.2594,0.2633,0.2634,0.2636,0.2683,0,0,0,0,0,0,0.2491,0.2495,0.2502,0.2513,0.2518,0.2545,0.2544,0.2548,0.2567,0.257,0.2584,0.2586,0.2584,0.2605,0.2605,0.2629,0.2595,0.2632,0.2634,0.2635,0.2681,0.2686,0.2691,0,0,0,0,0,0.2489,0.2491,0.2502,0.2506,0.2526,0.2545,0.2548,0.2563,0.2567,0.2582,0.2592,0.2586,0.2617,0.2606,0.2606,0.263,0.2631,0.2633,0.2635,0.2678,0.2685,0.2691,0,0,0,0,0,0,0.2469,0.2495,0.2507,0.2515,0.2538,0.2551,0.2559,0.2571,0.2589,0.2594,0.2595,0.2598,0.2627,0.2619,0.2607,0.2648,0.2624,0.2627,0.2657,0.2663,0.2669,0.2702,0.2595,0,0,0,0,0,0.2469,0.2483,0.2508,0.2516,0.2529,0.2548,0.2557,0.2572,0.2587,0.2597,0.2605,0.2616,0.2633,0.2641,0.265,0.2666,0.2692,0.2684,0.2689,0.2693,0.2721,0.2769,0.2782,0.2644,0.2644,0.2644,0,0,0.246,0.2477,0.2484,0.2514,0.253,0.2554,0.2556,0.2579,0.2602,0.2595,0.2625,0.2635,0.2642,0.2669,0.2681,0.2667,0.2747,0.2696,0.27,0.2726,0.2773,0.2786,0.2798,0.2645,0.2645,0.2645,0,0,0.2452,0.2472,0.2486,0.251,0.2543,0.256,0.2572,0.2599,0.2618,0.2642,0.2652,0.2685,0.2688,0.2717,0.2726,0.2765,0.2775,0.2759,0.2812,0.2858,0.287,0.2881,0.2939,0.2955,0.276,0.276,0.276,0,0.2441,0.2467,0.2491,0.2515,0.2537,0.2567,0.2593,0.2615,0.2645,0.2675,0.2658,0.2719,0.2718,0.2782,0.2796,0.2781,0.2811,0.2786,0.2867,0.2878,0.2889,0.2945,0.2962,0.2763,0.2762,0.2762,0.2762,0,0.2449,0.2476,0.2486,0.2533,0.2559,0.2586,0.2625,0.266,0.2681,0.271,0.2775,0.2785,0.2831,0.2829,0.2823,0.2904,0.2903,0.2869,0.2853,0.2906,0.2961,0.2978,0.2766,0.2765,0.2765,0.2764,0,0,0.2411,0.248,0.2484,0.2519,0.2575,0.26,0.2651,0.2716,0.2771,0.2798,0.2869,0.2901,0.2928,0.2943,0.2949,0.2987,0.3079,0.2964,0.2965,0.3027,0.3199,0.3123,0.3134,0.3056,0.3059,0.3062,0.3211,0,0.2414,0.246,0.2497,0.2551,0.2584,0.264,0.2691,0.2756,0.2807,0.2882,0.2926,0.2986,0.2964,0.2997,0.3037,0.3073,0.3124,0.3043,0.3135,0.3138,0.3068,0.3151,0.2914,0.302,0.3227,0.323,0.3232,0,0.2412,0.2449,0.2495,0.2586,0.2607,0.2649,0.2758,0.2807,0.292,0.2966,0.3048,0.3081,0.3174,0.3123,0.3242,0.3191,0.3212,0.3227,0.3232,0.3161,0.3093,0.2998,0.3042,0.326,0.3258,0.3256,0.3254,0,0.2377,0.2452,0.2493,0.2519,0.2617,0.2665,0.2727,0.2838,0.2913,0.3032,0.31,0.32,0.3263,0.331,0.3339,0.3305,0.3449,0.3399,0.336,0.3356,0.3174,0.3147,0.3487,0.3487,0.3486,0.3486,0.3485,0,0.2366,0.2401,0.2486,0.2508,0.2582,0.2658,0.2756,0.2836,0.2977,0.3061,0.3146,0.3223,0.3311,0.3386,0.3396,0.344,0.35,0.3408,0.3398,0.3182,0.3156,0.3369,0.3353,0.3491,0.349,0.3489,0.3488,0,0.2321,0.2372,0.2426,0.2528,0.2564,0.2617,0.2772,0.2844,0.2983,0.3097,0.3142,0.3293,0.3381,0.3452,0.354,0.3516,0.3553,0.3543,0.3293,0.325,0.3425,0.341,0.3552,0.3551,0.355,0.3549,0.3548,0,0.2301,0.2322,0.2418,0.2451,0.2499,0.2595,0.2657,0.2822,0.2892,0.3108,0.3141,0.3304,0.3357,0.3489,0.3495,0.3542,0.3556,0.332,0.3207,0.3461,0.3437,0.3423,0.341,0.2996,0.2991,0.2987,0.2983,0,0.2262,0.2294,0.2337,0.2398,0.2461,0.2532,0.263,0.2699,0.2866,0.2964,0.3078,0.3159,0.3313,0.3255,0.3331,0.3308,0.3294,0.3235,0.3582,0.3002,0.2944,0.2917,0.2922,0.2945,0.2949,0.2952,0.2954,0.2956,0.2226,0.2239,0.2288,0.234,0.2402,0.2439,0.2458,0.2549,0.2637,0.2742,0.2898,0.2932,0.3029,0.3027,0.2963,0.2934,0.3152,0.3003,0.3013,0.3029,0.2923,0.2865,0.2834,0.2837,0.2839,0.2842,0.2844,0,0.2165,0.2186,0.2228,0.2267,0.2275,0.2351,0.2407,0.2388,0.2395,0.2527,0.2602,0.2475,0.2483,0.2565,0.2493,0.2528,0.2477,0.2402,0.2307,0.235,0.2387,0.2243,0.1976,0.1973,0.1969,0.1966,0,0,0.2134,0.2128,0.2139,0.2116,0.215,0.212,0.212,0.21,0.2146,0.213,0.2146,0.2365,0.2501,0.2188,0.2187,0.2059,0.217,0.1984,0.2694,0.2625,0.2656,0.2767,0.26,0,0,0,0,0]},{"header":{"parameterUnit":"m.s-1","parameterCategory":2,"la1":30.2991,"la2":30.254,"lo1":-89.0895,"lo2":-89.0444,"dy":0.0017,"dx":0.0017,"nx":28,"ny":28,"refTime":"2024-10-05T21:00:00:Z","depth":"2","parameterNumber":3,"parameterNumberName":"V-component_of_CURRENTS"},"data":[0,0,0,0,0,0,0,0,0,0,0,0,0,0,0,0,0,0,0,0,0,0,0,0,0,0,0,0,0,0,0,0,0,0,0,0,0,0,0,0,0,0,0,0,0,0,0,0,0,0,0,0,0,0,0,0,0,0,0.0016,0.0016,0,-0.005,-0.0051,-0.0051,-0.01,-0.01,-0.01,-0.01,-0.02,-0.0203,-0.0205,0,0,0,0,0,0,0,0,0,0,0,0,0,0.0062,0.0062,0.0016,0.0015,0.0015,-0.005,-0.0051,-0.0052,-0.01,-0.01,-0.01,-0.01,-0.0199,-0.0202,-0.0205,0,0,0,0,0,0,0,0,0,0,0,0,0,0.0022,0.0062,0.0016,-0.0015,-0.0019,-0.0049,-0.0051,-0.0052,-0.0099,-0.01,-0.01,-0.0101,-0.0198,-0.0202,-0.0206,-0.0221,0,0,-0.0217,-0.0218,0,0,0,0,0,0,0,0,0.0025,0.002,-0.001,-0.0013,-0.0017,-0.0065,-0.0071,-0.011,-0.0099,-0.0071,-0.01,-0.0101,-0.0157,-0.0164,-0.0178,-0.0225,-0.023,-0.0217,-0.0219,-0.0221,-0.0222,0,0,0,0,0,0,0,0.0028,0.0023,-0.0012,-0.0011,-0.0015,-0.0039,-0.0045,-0.0079,-0.0113,-0.0073,-0.0076,-0.0081,-0.0159,-0.0174,-0.018,-0.0231,-0.0217,-0.022,-0.0222,-0.0224,-0.0304,-0.0304,0,0,0,0,0,0,0.0042,0.0026,-0.001,-0.0014,0.0005,-0.004,-0.0046,-0.0051,-0.0112,-0.0121,-0.008,-0.0083,-0.0167,-0.0176,-0.0184,-0.0202,-0.0221,-0.0224,-0.0226,-0.0304,-0.0304,-0.0304,0,0,0,0,0,0,0.0043,0.0039,-0.0007,0.0006,-0.0001,-0.0039,-0.0045,-0.0052,-0.0071,-0.0117,-0.0127,-0.0091,-0.0168,-0.0179,-0.0214,-0.0206,-0.0226,-0.0229,-0.0304,-0.0304,-0.0304,-0.024,0,0,0,0,0,0,0.0044,0.004,0.0041,0.0007,-0.0002,-0.0024,-0.0044,-0.0053,-0.0072,-0.0075,-0.0129,-0.0139,-0.0169,-0.0208,-0.0217,-0.0211,-0.0232,-0.0304,-0.0304,-0.0304,-0.0242,-0.0237,-0.0233,0,0,0,0,0,0.0046,0.0052,0.0041,0.0037,0.0001,-0.0024,-0.0031,-0.006,-0.0071,-0.0079,-0.0113,-0.0137,-0.0214,-0.0211,-0.0222,-0.0217,-0.0304,-0.0304,-0.0304,-0.0244,-0.0238,-0.0234,0,0,0,0,0,0,0.0071,0.0046,0.0034,0.0031,0.0006,-0.0031,-0.0037,-0.0058,-0.0092,-0.0094,-0.014,-0.0152,-0.018,-0.0209,-0.0204,-0.024,-0.0262,-0.0264,-0.0212,-0.0208,-0.0204,-0.0183,-0.0235,0,0,0,0,0,0.0079,0.0076,0.0045,0.0042,0.0033,-0.0002,-0.0015,-0.0035,-0.0067,-0.0082,-0.0118,-0.0155,-0.0187,-0.0205,-0.0239,-0.0259,-0.0286,-0.0263,-0.0259,-0.0255,-0.0246,-0.0278,-0.0275,-0.0303,-0.0303,-0.0303,0,0,0.0087,0.0074,0.0072,0.0048,0.0027,0.0024,-0.0012,-0.0027,-0.0029,-0.0087,-0.0102,-0.0144,-0.019,-0.0212,-0.0227,-0.0235,-0.0262,-0.0255,-0.0251,-0.0245,-0.0277,-0.0275,-0.0272,-0.0303,-0.0303,-0.0303,0,0,0.011,0.0092,0.01,0.0084,0.0061,0.0042,0.004,0.0004,-0.0012,-0.0035,-0.0074,-0.0109,-0.016,-0.0187,-0.0208,-0.0202,-0.0241,-0.0216,-0.0176,-0.0206,-0.0204,-0.0202,-0.0232,-0.0234,-0.0211,-0.0211,-0.0211,0,0.0122,0.0129,0.0097,0.0101,0.0101,0.0055,0.0069,0.0044,0.0002,-0.0003,-0.0031,-0.0101,-0.0145,-0.0165,-0.0165,-0.0191,-0.0216,-0.0189,-0.0199,-0.0198,-0.0198,-0.0229,-0.0231,-0.0208,-0.0208,-0.0208,-0.0208,0,0.0151,0.0157,0.016,0.0156,0.0149,0.015,0.0122,0.0108,0.0082,0.0059,0.0026,-0.0039,-0.0076,-0.01,-0.0134,-0.0147,-0.0169,-0.0191,-0.0207,-0.0191,-0.0225,-0.0229,-0.0203,-0.0204,-0.0205,-0.0206,0,0,0.0182,0.0183,0.0185,0.0202,0.0183,0.0184,0.0182,0.0172,0.0182,0.0122,0.0128,0.0053,0.0015,-0.0012,-0.0063,-0.0096,-0.0121,-0.0137,-0.014,-0.0158,-0.0188,-0.0193,-0.0198,-0.0144,-0.0144,-0.0145,-0.0214,0,0.0218,0.0252,0.0239,0.0276,0.0296,0.0264,0.027,0.0254,0.0229,0.0219,0.0147,0.0123,0.0051,0.0031,-0.0013,-0.0091,-0.0127,-0.01,-0.0209,-0.0212,-0.0212,-0.0201,-0.0177,-0.0235,-0.0218,-0.0218,-0.0219,0,0.0257,0.0278,0.0321,0.0352,0.0358,0.0367,0.0382,0.0384,0.0353,0.0331,0.0287,0.023,0.0168,0.0105,-0.002,0.0001,-0.0085,-0.0153,-0.0158,-0.0185,-0.0224,-0.0251,-0.0243,-0.0225,-0.0225,-0.0224,-0.0224,0,0.0311,0.0342,0.0386,0.0392,0.0409,0.0422,0.0431,0.0417,0.044,0.0403,0.0408,0.0317,0.0283,0.0159,0.0014,-0.0005,-0.0118,-0.0161,-0.0248,-0.025,-0.0261,-0.0263,-0.0244,-0.0244,-0.0244,-0.0244,-0.0244,0,0.0363,0.0398,0.0412,0.0435,0.0497,0.0482,0.0537,0.0527,0.0532,0.0576,0.0472,0.0481,0.0296,0.0207,0.0055,-0.0098,-0.0089,-0.0236,-0.0265,-0.0239,-0.0238,-0.0256,-0.0256,-0.0246,-0.0246,-0.0245,-0.0245,0,0.0416,0.0421,0.0477,0.0505,0.0523,0.0566,0.062,0.0659,0.0643,0.0696,0.0689,0.061,0.0489,0.0303,0.0113,-0.0027,-0.0185,-0.0242,-0.0197,-0.022,-0.0313,-0.0309,-0.0356,-0.0356,-0.0357,-0.0357,-0.0358,0,0.0446,0.0478,0.0538,0.058,0.0595,0.0654,0.0701,0.0715,0.0772,0.0783,0.0826,0.0725,0.0677,0.0395,0.0131,-0.0127,-0.0168,-0.0274,-0.0311,-0.0299,-0.0323,-0.0318,-0.0314,-0.0307,-0.0307,-0.0307,-0.0307,0,0.051,0.0525,0.0572,0.0658,0.0717,0.0797,0.0869,0.0933,0.0959,0.0997,0.1037,0.0995,0.0732,0.0486,0.0135,-0.0046,-0.0236,-0.0281,-0.0276,-0.0275,-0.0257,-0.0279,-0.0276,-0.0307,-0.0307,-0.0307,-0.0307,-0.0307,0.0558,0.0604,0.0663,0.0748,0.0822,0.0924,0.1,0.1081,0.1179,0.1237,0.1202,0.1143,0.0859,0.0414,0.0107,-0.0225,-0.0221,-0.0344,-0.0343,-0.0342,-0.0317,-0.0299,-0.0353,-0.0353,-0.0353,-0.0354,-0.0354,0,0.062,0.0669,0.075,0.085,0.0937,0.0967,0.1104,0.1176,0.1294,0.1339,0.1359,0.1096,0.0813,0.0477,-0.0007,-0.0294,-0.0328,-0.039,-0.0365,-0.0363,-0.0362,-0.0337,-0.0379,-0.038,-0.0381,-0.0382,0,0,0.0654,0.0739,0.0778,0.0927,0.0999,0.1124,0.1204,0.1307,0.1372,0.1412,0.1383,0.1313,0.0917,0.0571,0.0178,-0.01,-0.0172,-0.0164,-0.0113,-0.0035,-0.0031,-0.0305,-0.026,0,0,0,0,0]}],[{"header":{"parameterUnit":"m.s-1","parameterCategory":2,"la1":30.2991,"la2":30.254,"lo1":-89.0895,"lo2":-89.0444,"dy":0.0017,"dx":0.0017,"nx":28,"ny":28,"refTime":"2024-10-05T21:00:00:Z","depth":"4","parameterNumber":2,"parameterNumberName":"U-component_of_CURRENTS"},"data":[0,0,0,0,0,0,0,0,0,0,0,0,0,0,0,0,0,0,0,0,0,0,0,0,0,0,0,0,0,0,0,0,0,0,0,0,0,0,0,0,0,0,0,0,0,0,0,0,0,0,0,0,0,0,0,0,0,0,0.1596,0.1597,0,0.1665,0.1666,0.1667,0.1712,0.1712,0.1713,0.1713,0.1794,0.1795,0.1797,0,0,0,0,0,0,0,0,0,0,0,0,0,0.1508,0.151,0.1596,0.1597,0.1598,0.1665,0.1666,0.1667,0.1712,0.1712,0.1713,0.1713,0.1793,0.1795,0.1797,0,0,0,0,0,0,0,0,0,0,0,0,0,0.1557,0.151,0.1596,0.163,0.1634,0.1665,0.1666,0.1667,0.1712,0.1712,0.1713,0.1714,0.1793,0.1795,0.1797,0.1798,0,0,0.1805,0.1806,0,0,0,0,0,0,0,0,0.1554,0.1559,0.1624,0.1628,0.1633,0.1683,0.1665,0.1712,0.1711,0.168,0.1713,0.1714,0.1759,0.1764,0.1772,0.1802,0.1805,0.1805,0.1807,0.1808,0.1809,0,0,0,0,0,0,0,0.155,0.1557,0.1621,0.1625,0.1631,0.1645,0.1652,0.1674,0.1712,0.1683,0.1687,0.1698,0.1761,0.1769,0.1774,0.1806,0.1805,0.1808,0.1809,0.181,0.1935,0.1936,0,0,0,0,0,0,0.1546,0.1554,0.1619,0.1623,0.1597,0.1646,0.1654,0.1664,0.1712,0.1721,0.1697,0.17,0.1765,0.1771,0.1777,0.1857,0.1808,0.181,0.1812,0.1933,0.1935,0.1937,0,0,0,0,0,0,0.1543,0.1551,0.1616,0.1592,0.1602,0.1647,0.1657,0.1665,0.1709,0.1724,0.1732,0.1738,0.1765,0.1774,0.183,0.1857,0.1811,0.1814,0.1931,0.1933,0.1936,0.1966,0,0,0,0,0,0,0.1541,0.1549,0.1572,0.1592,0.1603,0.1657,0.1657,0.1666,0.1713,0.1718,0.176,0.1766,0.1767,0.1826,0.1832,0.186,0.1816,0.1928,0.1932,0.1935,0.1963,0.197,0.1976,0,0,0,0,0,0.1537,0.156,0.1572,0.1581,0.1626,0.1658,0.1666,0.1698,0.1715,0.1739,0.1772,0.1767,0.1852,0.183,0.1836,0.1865,0.1927,0.1931,0.1935,0.196,0.1969,0.1975,0,0,0,0,0,0,0.1539,0.1567,0.1581,0.1614,0.1645,0.1667,0.1701,0.1719,0.1763,0.1781,0.179,0.1799,0.1858,0.1863,0.1838,0.1913,0.1889,0.1894,0.1906,0.1914,0.192,0.1921,0.1818,0,0,0,0,0,0.1547,0.1573,0.16,0.1632,0.165,0.1682,0.1707,0.1729,0.1763,0.1785,0.1815,0.1848,0.1874,0.1896,0.1922,0.1964,0.1973,0.1989,0.1995,0.2,0.2007,0.2038,0.2047,0.195,0.195,0.195,0,0,0.1558,0.1579,0.1595,0.1635,0.1664,0.1692,0.17,0.1749,0.1777,0.1786,0.185,0.1876,0.1892,0.1938,0.1964,0.1949,0.2037,0.2005,0.2009,0.2014,0.2043,0.2053,0.2061,0.1953,0.1953,0.1952,0,0,0.1578,0.1612,0.1635,0.1664,0.1714,0.1729,0.1751,0.1796,0.1826,0.188,0.1894,0.1941,0.1987,0.2001,0.201,0.2069,0.2071,0.2084,0.2113,0.2143,0.2151,0.2158,0.2194,0.2204,0.2084,0.2084,0.2084,0,0.1592,0.162,0.165,0.1679,0.1704,0.1748,0.1774,0.1809,0.187,0.1895,0.1911,0.1994,0.2012,0.2052,0.2075,0.2082,0.2104,0.2078,0.215,0.2157,0.2163,0.2198,0.2209,0.2086,0.2086,0.2085,0.2085,0,0.1614,0.1652,0.1674,0.1716,0.1747,0.1786,0.1825,0.1874,0.1917,0.1946,0.2019,0.2052,0.2097,0.2112,0.2112,0.2169,0.2172,0.2153,0.2124,0.2174,0.2209,0.2219,0.2089,0.2088,0.2087,0.2087,0,0,0.1599,0.1672,0.1683,0.1706,0.1771,0.1792,0.1849,0.1898,0.1946,0.2009,0.2063,0.2116,0.215,0.2165,0.218,0.2209,0.2277,0.2208,0.2209,0.2234,0.2358,0.223,0.2229,0.2271,0.2273,0.2274,0.2367,0,0.1609,0.1658,0.1693,0.1743,0.1768,0.1822,0.1869,0.1925,0.1984,0.2054,0.2097,0.2165,0.2164,0.2206,0.2233,0.2272,0.2305,0.2254,0.2315,0.2318,0.2188,0.2236,0.228,0.2375,0.2377,0.2379,0.238,0,0.1607,0.1641,0.1687,0.1751,0.1769,0.1811,0.189,0.194,0.2037,0.2092,0.2163,0.2209,0.228,0.2269,0.2354,0.2326,0.2351,0.2371,0.2374,0.2248,0.2207,0.2314,0.2399,0.2397,0.2396,0.2394,0.2393,0,0.1557,0.1631,0.1665,0.169,0.1772,0.1811,0.1863,0.1958,0.201,0.2133,0.2191,0.2273,0.2338,0.2377,0.2429,0.2404,0.2514,0.2475,0.2384,0.2376,0.2449,0.244,0.2531,0.2531,0.2531,0.253,0.253,0,0.1528,0.1561,0.1655,0.1673,0.1726,0.1794,0.1868,0.1942,0.2052,0.2114,0.2216,0.2274,0.2371,0.2438,0.246,0.2459,0.2541,0.24,0.2389,0.2463,0.2455,0.2457,0.2447,0.2534,0.2533,0.2532,0.2532,0,0.1462,0.1526,0.1571,0.1668,0.1704,0.1744,0.1862,0.1913,0.2038,0.2125,0.2171,0.2304,0.2391,0.2469,0.2554,0.2491,0.2509,0.2489,0.2592,0.2584,0.2344,0.2336,0.238,0.2377,0.2373,0.2371,0.2368,0,0.1426,0.1447,0.1555,0.1586,0.1637,0.1714,0.1768,0.1897,0.1947,0.2118,0.214,0.2283,0.2355,0.2374,0.2465,0.2507,0.2479,0.2474,0.2375,0.2343,0.2329,0.2325,0.2321,0.2363,0.2362,0.2362,0.2361,0,0.1353,0.1411,0.1448,0.1522,0.1582,0.1633,0.1717,0.1741,0.1884,0.2012,0.2071,0.2128,0.2224,0.2289,0.2353,0.237,0.2463,0.244,0.2445,0.2351,0.2323,0.2311,0.2311,0.235,0.2351,0.2352,0.2353,0,0.1304,0.1315,0.1383,0.1433,0.1505,0.1527,0.1584,0.164,0.1706,0.1886,0.1905,0.2059,0.2196,0.222,0.2272,0.229,0.2244,0.2162,0.2181,0.2194,0.209,0.2024,0.1956,0,0,0,0,0,0.1243,0.1248,0.1288,0.1329,0.1398,0.1443,0.1536,0.1595,0.1729,0.1725,0.1809,0.189,0.1973,0.2055,0.2037,0.2193,0.2256,0.2162,0.217,0.2288,0.2301,0.2195,0,0,0,0,0,0,0.1199,0.1234,0.1249,0.1235,0.1251,0.1309,0.1366,0.1458,0.1456,0.1607,0.1661,0.1784,0.1892,0.197,0.2003,0.203,0.1998,0.2264,0.226,0.228,0.2292,0.2302,0.2198,0,0,0,0,0]},{"header":{"parameterUnit":"m.s-1","parameterCategory":2,"la1":30.2991,"la2":30.254,"lo1":-89.0895,"lo2":-89.0444,"dy":0.0017,"dx":0.0017,"nx":28,"ny":28,"refTime":"2024-10-05T21:00:00:Z","depth":"4","parameterNumber":3,"parameterNumberName":"V-component_of_CURRENTS"},"data":[0,0,0,0,0,0,0,0,0,0,0,0,0,0,0,0,0,0,0,0,0,0,0,0,0,0,0,0,0,0,0,0,0,0,0,0,0,0,0,0,0,0,0,0,0,0,0,0,0,0,0,0,0,0,0,0,0,0,0.0124,0.0124,0,0.0076,0.0076,0.0075,0.0054,0.0054,0.0054,0.0054,-0.0016,-0.0018,-0.002,0,0,0,0,0,0,0,0,0,0,0,0,0,0.0157,0.0156,0.0124,0.0124,0.0123,0.0076,0.0076,0.0075,0.0054,0.0054,0.0054,0.0054,-0.0015,-0.0018,-0.002,0,0,0,0,0,0,0,0,0,0,0,0,0,0.0128,0.0156,0.0124,0.0108,0.0106,0.0076,0.0075,0.0075,0.0054,0.0054,0.0054,0.0055,-0.0015,-0.0018,-0.0021,-0.0043,0,0,-0.003,-0.0031,0,0,0,0,0,0,0,0,0.013,0.0127,0.0111,0.0109,0.0107,0.0072,0.0061,0.0034,0.0054,0.0073,0.0054,0.0055,0.0012,0.0006,-0.0004,-0.0047,-0.005,-0.003,-0.0032,-0.0033,-0.0034,0,0,0,0,0,0,0,0.0132,0.0129,0.0104,0.011,0.0108,0.0088,0.0085,0.0056,0.0041,0.0071,0.007,0.0065,0.001,-0.0001,-0.0006,-0.0051,-0.003,-0.0033,-0.0034,-0.0036,-0.0112,-0.0112,0,0,0,0,0,0,0.0141,0.0131,0.0106,0.0103,0.012,0.0088,0.0084,0.0082,0.0041,0.0036,0.0065,0.0065,0.0004,-0.0002,-0.0008,-0.0017,-0.0033,-0.0036,-0.0038,-0.0112,-0.0112,-0.0113,0,0,0,0,0,0,0.0142,0.014,0.0108,0.0116,0.0111,0.0088,0.0085,0.0081,0.0071,0.0037,0.0031,0.006,0.0004,-0.0004,-0.0031,-0.0021,-0.0037,-0.004,-0.0112,-0.0112,-0.0112,-0.0048,0,0,0,0,0,0,0.0143,0.014,0.0142,0.0117,0.0111,0.0093,0.0085,0.008,0.0068,0.0067,0.0031,0.0024,0.0004,-0.0027,-0.0034,-0.0025,-0.0042,-0.0111,-0.0112,-0.0112,-0.005,-0.0046,-0.0043,0,0,0,0,0,0.0145,0.0145,0.0143,0.0139,0.0114,0.0093,0.0088,0.0071,0.0068,0.0063,0.004,0.0026,-0.0035,-0.0029,-0.0038,-0.0029,-0.0111,-0.0112,-0.0112,-0.0051,-0.0047,-0.0043,0,0,0,0,0,0,0.0157,0.0143,0.0139,0.0135,0.0117,0.009,0.0085,0.0072,0.005,0.0051,0.002,0.0012,-0.0009,-0.0034,-0.0027,-0.0055,-0.0075,-0.0077,-0.0025,-0.0022,-0.0018,0.0007,-0.0045,0,0,0,0,0,0.0162,0.0162,0.0141,0.0138,0.0132,0.0109,0.0099,0.0088,0.0065,0.0056,0.0032,0.0004,-0.0019,-0.0031,-0.006,-0.0076,-0.0099,-0.0077,-0.0074,-0.007,-0.0058,-0.0083,-0.008,-0.0114,-0.0114,-0.0114,0,0,0.0166,0.0158,0.0158,0.0141,0.0128,0.0128,0.0104,0.0091,0.0094,0.0051,0.0045,0.0012,-0.0024,-0.0039,-0.005,-0.0055,-0.0076,-0.0071,-0.0068,-0.0057,-0.0083,-0.0079,-0.0076,-0.0115,-0.0115,-0.0115,0,0,0.0176,0.0168,0.0174,0.0164,0.0148,0.0137,0.0136,0.0111,0.0104,0.0086,0.0062,0.004,-0.0004,-0.0016,-0.0031,-0.0028,-0.006,-0.0044,0.0001,-0.0023,-0.002,-0.0017,-0.0049,-0.005,-0.0036,-0.0036,-0.0036,0,0.0182,0.0192,0.017,0.0174,0.0177,0.0147,0.016,0.0143,0.0113,0.0115,0.0091,0.0043,0.0011,0.0008,0.001,-0.0017,-0.0042,-0.0007,-0.0016,-0.0014,-0.0012,-0.0046,-0.0048,-0.0033,-0.0033,-0.0034,-0.0034,0,0.0199,0.0209,0.021,0.0215,0.0211,0.0214,0.0198,0.0192,0.0177,0.0164,0.0147,0.0099,0.0078,0.0059,0.0035,0.0035,0.0009,-0.0011,-0.0019,-0.0005,-0.0042,-0.0045,-0.0029,-0.003,-0.0031,-0.0031,0,0,0.0213,0.0223,0.0226,0.0248,0.0239,0.0243,0.0248,0.0252,0.0268,0.0225,0.0238,0.019,0.0166,0.0147,0.0112,0.009,0.0073,0.0051,0.0048,0.0032,0.0012,-0.0014,-0.002,0.0052,0.0052,0.0052,-0.0021,0,0.0238,0.0268,0.0265,0.0303,0.0323,0.031,0.0322,0.0319,0.0307,0.0306,0.0261,0.025,0.0199,0.019,0.0161,0.0093,0.0069,0.0094,-0.0012,-0.0015,-0.0028,-0.0022,0.0052,-0.0023,-0.0024,-0.0024,-0.0025,0,0.0262,0.0285,0.0326,0.0369,0.0376,0.0392,0.0424,0.0431,0.042,0.0408,0.0388,0.0344,0.0308,0.0258,0.0162,0.0178,0.0106,0.0048,0.0044,0.0,-0.0045,-0.0042,-0.003,-0.003,-0.0029,-0.0029,-0.0029,0,0.0298,0.0335,0.0379,0.0389,0.0418,0.0442,0.0461,0.0465,0.0491,0.0478,0.0484,0.0425,0.0396,0.0303,0.0175,0.017,0.0059,0.0035,-0.0055,-0.0059,-0.0042,-0.0044,-0.0026,-0.0026,-0.0026,-0.0026,-0.0025,0,0.0332,0.0369,0.0402,0.0424,0.0488,0.0491,0.0551,0.0557,0.0576,0.0609,0.0545,0.0542,0.0406,0.0319,0.0201,0.0062,0.0077,-0.0043,-0.0074,-0.0016,-0.0014,-0.0044,-0.0045,-0.0028,-0.0028,-0.0027,-0.0027,0,0.0362,0.0379,0.0437,0.0483,0.0506,0.0552,0.0621,0.066,0.0666,0.0705,0.0704,0.0633,0.0509,0.0362,0.02,0.0101,-0.0032,-0.0085,-0.0013,-0.0041,-0.0141,-0.0138,-0.0186,-0.0187,-0.0189,-0.019,-0.019,0,0.038,0.041,0.0483,0.0524,0.055,0.0618,0.0666,0.0703,0.0743,0.0755,0.077,0.0673,0.0597,0.0359,0.0194,-0.0033,-0.0068,-0.0134,-0.0134,-0.0129,-0.0155,-0.015,-0.0146,-0.0192,-0.0193,-0.0193,-0.0193,0,0.0417,0.044,0.0487,0.0571,0.0633,0.0709,0.0775,0.0813,0.0846,0.0856,0.0823,0.0698,0.0555,0.0356,0.0177,0.0015,-0.0089,-0.0147,-0.0146,-0.0147,-0.0137,-0.0161,-0.0155,-0.0197,-0.0197,-0.0196,-0.0196,0,0.0444,0.0482,0.054,0.0615,0.0695,0.0766,0.0805,0.0842,0.0882,0.0884,0.0867,0.0716,0.063,0.038,0.0217,0.0051,0.0005,-0.0043,-0.0047,-0.0045,0.001,0.0044,0.002,0,0,0,0,0,0.0469,0.0508,0.0579,0.0657,0.0735,0.0782,0.0861,0.0888,0.0916,0.0901,0.0888,0.0751,0.0508,0.0404,0.0233,0.0179,-0.0032,-0.0028,-0.0092,-0.022,-0.0215,-0.0178,0,0,0,0,0,0,0.0482,0.0548,0.0578,0.0674,0.0729,0.0819,0.087,0.0893,0.0881,0.0882,0.0754,0.0703,0.0462,0.0601,0.0226,0.0176,0.0112,-0.0139,-0.0143,-0.0223,-0.0218,-0.0215,-0.0174,0,0,0,0,0]}]]